When you browse on this site, cookies collect data to enhance your experience and personalize the content and advertising you see.
Visit our Privacy Policy to learn more. By continuing to use the site, you agree to this use of cookies and data.
  • In Hungary
  • List of Countries
  • For 7 days
  • Water Temperature
  • Satellite Maps
  • Weather Map
  • News
  • Weather Widgets
  • user-avatar
    Login

    Hourly Weather Beograd

    Today, 13 December, Thursday

    Time Temperature Precipitation Wind Pressure Humidity
    00:00 +2°C° 0 mm 1 mps 758 mmHg 85%
    01:00 +1°C° 0 mm 0 mps 757 mmHg 85%
    02:00 +1°C° 0 mm 0 mps 757 mmHg 86%
    03:00 0°C° 0 mm 0 mps 757 mmHg 87%
    04:00 0°C° 0 mm 0 mps 758 mmHg 87%
    05:00 0°C° 0 mm 0 mps 757 mmHg 88%
    06:00 0°C° 0 mm 0 mps 757 mmHg 88%
    07:00 0°C° 0 mm 0 mps 757 mmHg 89%
    08:00 +2°C° 0 mm 1 mps 757 mmHg 83%
    09:00 +3°C° 0 mm 1 mps 757 mmHg 78%
    10:00 +4°C° 0 mm 1 mps 757 mmHg 73%
    11:00 +4°C° 0 mm 1 mps 757 mmHg 70%
    12:00 +4°C° 0 mm 2 mps 756 mmHg 66%
    13:00 +4°C° 0 mm 2 mps 756 mmHg 63%
    14:00 +4°C° 0 mm 2 mps 756 mmHg 67%
    15:00 +3°C° 0 mm 2 mps 756 mmHg 70%
    16:00 +2°C° 0 mm 2 mps 756 mmHg 74%
    17:00 +2°C° 0 mm 2 mps 756 mmHg 75%
    18:00 +1°C° 0 mm 2 mps 756 mmHg 77%
    19:00 +1°C° 0 mm 2 mps 756 mmHg 78%
    20:00 +1°C° 0 mm 2 mps 756 mmHg 77%
    21:00 +1°C° 0 mm 2 mps 756 mmHg 77%
    22:00 +1°C° 0 mm 2 mps 756 mmHg 76%
    23:00 -1°C° 0 mm 2 mps 756 mmHg 76%

    Tomorrow, 14 December, Friday

    Time Temperature Precipitation Wind Pressure Humidity
    00:00 -1°C° 0 mm 2 mps 756 mmHg 76%
    01:00 -1°C° 0 mm 2 mps 756 mmHg 76%
    02:00 -1°C° 0 mm 2 mps 756 mmHg 76%
    03:00 -1°C° 0 mm 2 mps 756 mmHg 75%
    04:00 -1°C° 0 mm 2 mps 756 mmHg 75%
    05:00 -1°C° 0 mm 2 mps 756 mmHg 74%
    06:00 -1°C° 0 mm 2 mps 756 mmHg 72%
    07:00 +1°C° 0 mm 1 mps 756 mmHg 71%
    08:00 +1°C° 0 mm 2 mps 756 mmHg 66%
    09:00 +2°C° 0 mm 2 mps 756 mmHg 62%
    10:00 +3°C° 0 mm 2 mps 756 mmHg 58%
    11:00 +3°C° 0.1 mm 2 mps 756 mmHg 58%
    12:00 +4°C° 0.1 mm 2 mps 756 mmHg 58%
    13:00 +4°C° 0.1 mm 2 mps 756 mmHg 58%
    14:00 +3°C° 0.4 mm 3 mps 756 mmHg 62%
    15:00 +2°C° 0.4 mm 3 mps 756 mmHg 66%
    16:00 +2°C° 0.4 mm 3 mps 756 mmHg 70%
    17:00 +1°C° 1 mm 3 mps 756 mmHg 74%
    18:00 +1°C° 1 mm 3 mps 756 mmHg 78%
    19:00 +1°C° 1 mm 3 mps 756 mmHg 82%
    20:00 0°C° 0.9 mm 3 mps 756 mmHg 85%
    21:00 0°C° 0.9 mm 3 mps 756 mmHg 87%
    22:00 0°C° 0.9 mm 3 mps 756 mmHg 89%
    23:00 0°C° 1 mm 3 mps 756 mmHg 90%

    Day after tomorrow, 15 December, Saturday

    Time Temperature Precipitation Wind Pressure Humidity
    00:00 0°C° 1 mm 3 mps 755 mmHg 91%
    01:00 0°C° 1 mm 3 mps 755 mmHg 93%
    02:00 0°C° 1.1 mm 3 mps 755 mmHg 93%
    03:00 0°C° 1.1 mm 3 mps 755 mmHg 94%
    04:00 +1°C° 1.1 mm 2 mps 754 mmHg 95%
    05:00 +1°C° 1.1 mm 2 mps 755 mmHg 96%
    06:00 +1°C° 1.1 mm 2 mps 755 mmHg 96%
    07:00 +1°C° 1.1 mm 2 mps 755 mmHg 96%
    08:00 +1°C° 1.1 mm 2 mps 755 mmHg 97%
    09:00 +1°C° 1.1 mm 2 mps 755 mmHg 98%
    10:00 +1°C° 1.1 mm 2 mps 755 mmHg 99%
    11:00 +1°C° 1.3 mm 2 mps 755 mmHg 99%
    12:00 +1°C° 1.3 mm 2 mps 755 mmHg 99%
    13:00 +1°C° 1.3 mm 2 mps 755 mmHg 99%
    14:00 -1°C° 1.1 mm 2 mps 755 mmHg 98%
    15:00 -1°C° 1.1 mm 2 mps 755 mmHg 98%
    16:00 -1°C° 1.1 mm 2 mps 755 mmHg 97%
    17:00 -1°C° 0.8 mm 2 mps 755 mmHg 97%
    18:00 -1°C° 0.8 mm 2 mps 755 mmHg 97%
    19:00 -1°C° 0.8 mm 3 mps 756 mmHg 97%
    20:00 -1°C° 0.5 mm 3 mps 756 mmHg 97%
    21:00 -1°C° 0.5 mm 3 mps 756 mmHg 96%
    22:00 -1°C° 0.5 mm 3 mps 756 mmHg 96%
    23:00 -2°C° 0.3 mm 3 mps 756 mmHg 96%

    16 December, Sunday

    Time Temperature Precipitation Wind Pressure Humidity
    00:00 -2°C° 0.3 mm 3 mps 756 mmHg 95%
    01:00 -2°C° 0.3 mm 3 mps 756 mmHg 95%
    02:00 -2°C° 0.1 mm 3 mps 756 mmHg 95%
    03:00 -2°C° 0.1 mm 3 mps 756 mmHg 95%
    04:00 -2°C° 0.1 mm 3 mps 756 mmHg 95%
    05:00 -2°C° 0 mm 3 mps 756 mmHg 95%
    06:00 -2°C° 0 mm 3 mps 757 mmHg 95%
    07:00 -4°C° 0 mm 3 mps 757 mmHg 95%
    08:00 -2°C° 0 mm 3 mps 757 mmHg 94%
    09:00 -2°C° 0 mm 3 mps 758 mmHg 94%
    10:00 -2°C° 0 mm 3 mps 758 mmHg 93%
    11:00 -2°C° 0 mm 3 mps 758 mmHg 92%
    12:00 -2°C° 0 mm 3 mps 757 mmHg 92%
    13:00 -1°C° 0 mm 2 mps 757 mmHg 91%
    14:00 -3°C° 0 mm 2 mps 757 mmHg 92%
    15:00 -2°C° 0 mm 1 mps 757 mmHg 92%
    16:00 -3°C° 0 mm 1 mps 757 mmHg 93%
    17:00 -4°C° 0 mm 1 mps 758 mmHg 93%
    18:00 -4°C° 0 mm 1 mps 758 mmHg 93%
    19:00 -6°C° 0 mm 0 mps 758 mmHg 92%
    20:00 -6°C° 0 mm 1 mps 758 mmHg 92%
    21:00 -6°C° 0 mm 1 mps 758 mmHg 91%
    22:00 -6°C° 0 mm 1 mps 758 mmHg 91%
    23:00 -6°C° 0 mm 1 mps 758 mmHg 91%

    17 December, Monday

    Time Temperature Precipitation Wind Pressure Humidity
    00:00 -6°C° 0 mm 1 mps 758 mmHg 90%
    01:00 -6°C° 0 mm 1 mps 758 mmHg 90%
    02:00 -6°C° 0 mm 1 mps 758 mmHg 90%
    03:00 -6°C° 0 mm 1 mps 758 mmHg 90%
    04:00 -6°C° 0 mm 1 mps 757 mmHg 90%
    05:00 -6°C° 0 mm 1 mps 757 mmHg 90%
    06:00 -4°C° 0 mm 1 mps 758 mmHg 89%
    07:00 -5°C° 0 mm 0 mps 758 mmHg 89%
    08:00 -4°C° 0 mm 0 mps 758 mmHg 89%
    09:00 -3°C° 0 mm 0 mps 758 mmHg 88%
    10:00 -2°C° 0 mm 0 mps 758 mmHg 88%
    11:00 -1°C° 0 mm 1 mps 758 mmHg 88%
    12:00 -1°C° 0 mm 1 mps 758 mmHg 88%
    13:00 0°C° 0 mm 1 mps 758 mmHg 88%
    14:00 -1°C° 0 mm 1 mps 758 mmHg 90%
    15:00 -2°C° 0 mm 1 mps 759 mmHg 91%
    16:00 -3°C° 0 mm 1 mps 759 mmHg 93%
    17:00 -3°C° 0 mm 1 mps 759 mmHg 93%
    18:00 -3°C° 0 mm 1 mps 760 mmHg 93%
    19:00 -4°C° 0 mm 0 mps 760 mmHg 92%
    20:00 -4°C° 0 mm 0 mps 760 mmHg 92%
    21:00 -4°C° 0 mm 0 mps 761 mmHg 92%
    22:00 -5°C° 0 mm 0 mps 761 mmHg 91%
    23:00 -5°C° 0 mm 0 mps 761 mmHg 92%

    18 December, Tuesday

    Time Temperature Precipitation Wind Pressure Humidity
    00:00 -6°C° 0 mm 0 mps 761 mmHg 92%
    01:00 -6°C° 0 mm 0 mps 761 mmHg 92%
    02:00 -6°C° 0 mm 0 mps 761 mmHg 92%
    03:00 -7°C° 0 mm 0 mps 761 mmHg 92%
    04:00 -7°C° 0 mm 1 mps 761 mmHg 92%
    05:00 -7°C° 0 mm 1 mps 761 mmHg 92%
    06:00 -6°C° 0 mm 1 mps 761 mmHg 92%
    07:00 -6°C° 0 mm 1 mps 761 mmHg 91%
    08:00 -4°C° 0 mm 1 mps 761 mmHg 91%
    09:00 -3°C° 0 mm 1 mps 761 mmHg 90%
    10:00 -3°C° 0 mm 0 mps 761 mmHg 90%
    11:00 -2°C° 0 mm 1 mps 761 mmHg 90%
    12:00 -1°C° 0 mm 1 mps 761 mmHg 90%
    13:00 0°C° 0 mm 1 mps 760 mmHg 91%
    14:00 -1°C° 0 mm 1 mps 760 mmHg 92%
    15:00 -1°C° 0 mm 1 mps 760 mmHg 93%
    16:00 -2°C° 0 mm 1 mps 760 mmHg 94%
    17:00 -3°C° 0 mm 0 mps 761 mmHg 95%
    18:00 -3°C° 0 mm 0 mps 761 mmHg 95%
    19:00 -3°C° 0 mm 0 mps 761 mmHg 95%
    20:00 -3°C° 0 mm 0 mps 761 mmHg 95%
    21:00 -3°C° 0 mm 0 mps 761 mmHg 95%
    22:00 -3°C° 0 mm 0 mps 761 mmHg 95%
    23:00 -3°C° 0 mm 0 mps 761 mmHg 95%
    Show more